TimeCST,TemperatureF,Dew PointF,Humidity,Sea Level PressureIn,VisibilityMPH,Wind Direction,Wind SpeedMPH,Gust SpeedMPH,PrecipitationIn,Events,Conditions,WindDirDegrees,DateUTC
12:15 AM,43.0,27.9,55,30.14,10.0,Calm,Calm,-,N/A,,Clear,0,2013-02-19 06:15:00
12:35 AM,42.8,27.7,55,30.12,10.0,North,5.8,-,N/A,,Clear,10,2013-02-19 06:35:00
1:15 AM,40.1,28.4,63,30.12,10.0,North,5.8,-,N/A,,Clear,10,2013-02-19 07:15:00
1:35 AM,39.7,28.6,64,30.13,10.0,North,5.8,-,N/A,,Clear,10,2013-02-19 07:35:00
1:55 AM,40.3,28.4,63,30.12,10.0,NNE,5.8,-,N/A,,Clear,20,2013-02-19 07:55:00
2:15 AM,40.6,28.0,61,30.14,10.0,NNE,3.5,-,N/A,,Clear,20,2013-02-19 08:15:00
2:35 AM,40.8,28.0,60,30.12,10.0,NNE,9.2,-,N/A,,Clear,20,2013-02-19 08:35:00
2:55 AM,41.2,28.2,60,30.14,10.0,Calm,Calm,-,N/A,,Clear,0,2013-02-19 08:55:00
3:15 AM,41.2,27.9,59,30.14,10.0,NNE,3.5,-,N/A,,Clear,30,2013-02-19 09:15:00
3:35 AM,40.3,27.9,61,30.15,10.0,Calm,Calm,-,N/A,,Clear,0,2013-02-19 09:35:00
3:55 AM,39.6,27.5,62,30.15,10.0,SSW,5.8,-,N/A,,Clear,200,2013-02-19 09:55:00
4:15 AM,39.4,27.7,63,30.18,10.0,Calm,Calm,-,N/A,,Clear,0,2013-02-19 10:15:00
4:35 AM,41.0,27.7,59,30.18,10.0,West,3.5,-,N/A,,Clear,260,2013-02-19 10:35:00
4:55 AM,40.6,28.2,61,30.18,10.0,North,4.6,-,N/A,,Clear,360,2013-02-19 10:55:00
5:15 AM,39.4,28.6,65,30.19,10.0,Calm,Calm,-,N/A,,Clear,0,2013-02-19 11:15:00
5:35 AM,39.0,27.9,64,30.20,10.0,Calm,Calm,-,N/A,,Clear,0,2013-02-19 11:35:00
5:55 AM,37.4,28.4,70,30.21,10.0,Calm,Calm,-,N/A,,Clear,0,2013-02-19 11:55:00
6:15 AM,37.9,28.2,68,30.22,10.0,Calm,Calm,-,N/A,,Clear,0,2013-02-19 12:15:00
6:35 AM,38.3,28.0,67,30.24,10.0,Calm,Calm,-,N/A,,Clear,0,2013-02-19 12:35:00
6:55 AM,38.8,27.3,63,30.24,10.0,NNE,4.6,-,N/A,,Clear,20,2013-02-19 12:55:00
7:15 AM,37.8,27.5,67,30.23,10.0,NNE,6.9,-,N/A,,Clear,30,2013-02-19 13:15:00
7:55 AM,39.2,29.1,67,30.25,10.0,NE,4.6,-,N/A,,Clear,40,2013-02-19 13:55:00
8:15 AM,39.9,29.7,67,30.26,10.0,Calm,Calm,-,N/A,,Clear,0,2013-02-19 14:15:00
8:35 AM,42.6,28.4,57,30.26,10.0,East,3.5,-,N/A,,Clear,80,2013-02-19 14:35:00
8:55 AM,45.5,27.9,50,30.26,10.0,East,8.1,-,N/A,,Clear,90,2013-02-19 14:55:00
9:15 AM,47.8,27.0,44,30.27,10.0,East,13.8,-,N/A,,Clear,100,2013-02-19 15:15:00
9:35 AM,48.9,26.6,42,30.27,10.0,East,11.5,-,N/A,,Clear,100,2013-02-19 15:35:00
9:55 AM,50.2,26.2,39,30.27,10.0,ESE,13.8,-,N/A,,Clear,120,2013-02-19 15:55:00
10:15 AM,51.8,25.0,35,30.27,10.0,East,15.0,-,N/A,,Clear,90,2013-02-19 16:15:00
10:35 AM,52.9,24.4,33,30.27,10.0,ESE,8.1,17.3,N/A,,Clear,110,2013-02-19 16:35:00
10:55 AM,54.1,24.6,32,30.27,10.0,ESE,11.5,17.3,N/A,,Clear,110,2013-02-19 16:55:00
11:15 AM,55.0,24.3,30,30.27,10.0,ESE,9.2,18.4,N/A,,Clear,120,2013-02-19 17:15:00
11:35 AM,55.9,23.7,29,30.26,10.0,ESE,13.8,18.4,N/A,,Clear,110,2013-02-19 17:35:00
11:55 AM,57.2,23.9,28,30.25,10.0,ESE,12.7,17.3,N/A,,Clear,110,2013-02-19 17:55:00
12:15 PM,57.7,24.1,27,30.23,10.0,ESE,12.7,23.0,N/A,,Clear,110,2013-02-19 18:15:00
12:35 PM,58.3,23.9,27,30.22,10.0,ESE,16.1,19.6,N/A,,Clear,110,2013-02-19 18:35:00
12:55 PM,59.0,22.6,25,30.20,10.0,ESE,15.0,21.9,N/A,,Clear,110,2013-02-19 18:55:00
1:15 PM,58.8,22.1,24,30.19,10.0,ESE,16.1,23.0,N/A,,Clear,110,2013-02-19 19:15:00
1:55 PM,59.4,22.3,24,30.16,10.0,SE,17.3,-,N/A,,Clear,130,2013-02-19 19:55:00
2:15 PM,60.6,21.9,23,30.15,10.0,ESE,19.6,-,N/A,,Clear,120,2013-02-19 20:15:00
2:55 PM,61.5,19.8,20,30.11,10.0,SE,13.8,24.2,N/A,,Clear,130,2013-02-19 20:55:00
3:15 PM,61.0,19.9,21,30.11,10.0,ESE,16.1,21.9,N/A,,Clear,110,2013-02-19 21:15:00
3:55 PM,60.1,17.6,19,30.11,10.0,SE,13.8,-,N/A,,Clear,140,2013-02-19 21:55:00
4:15 PM,59.4,17.1,19,30.11,10.0,SE,18.4,21.9,N/A,,Scattered Clouds,130,2013-02-19 22:15:00
4:35 PM,59.2,16.0,19,30.10,10.0,SE,15.0,20.7,N/A,,Scattered Clouds,130,2013-02-19 22:35:00
4:55 PM,59.0,15.8,19,30.09,10.0,SSE,16.1,24.2,N/A,,Mostly Cloudy,150,2013-02-19 22:55:00
5:15 PM,58.5,15.8,19,30.09,10.0,SE,15.0,24.2,N/A,,Mostly Cloudy,140,2013-02-19 23:15:00
6:15 PM,57.4,15.8,20,30.09,10.0,ESE,13.8,-,N/A,,Overcast,120,2013-02-20 00:15:00
6:35 PM,57.2,15.8,20,30.10,10.0,SE,10.4,-,N/A,,Overcast,130,2013-02-20 00:35:00
6:55 PM,55.0,23.0,29,30.10,10.0,ESE,10.4,-,N/A,Rain,Light Rain,120,2013-02-20 00:55:00
7:15 PM,53.6,25.7,34,30.10,10.0,ESE,9.2,-,N/A,,Overcast,110,2013-02-20 01:15:00
7:35 PM,54.1,23.4,30,30.10,10.0,East,10.4,-,N/A,,Overcast,100,2013-02-20 01:35:00
7:55 PM,54.7,22.5,29,30.12,10.0,ESE,9.2,-,N/A,,Overcast,110,2013-02-20 01:55:00
8:15 PM,54.9,21.9,28,30.09,10.0,ESE,13.8,-,N/A,,Overcast,110,2013-02-20 02:15:00
8:35 PM,55.0,20.8,26,30.09,10.0,ESE,13.8,-,N/A,,Overcast,110,2013-02-20 02:35:00
8:55 PM,55.0,21.0,27,30.09,10.0,ESE,10.4,-,N/A,,Overcast,110,2013-02-20 02:55:00
9:15 PM,55.0,21.6,27,30.09,10.0,ESE,9.2,-,N/A,,Overcast,110,2013-02-20 03:15:00
9:35 PM,54.9,22.6,29,30.09,10.0,ESE,15.0,-,N/A,Rain,Light Rain,110,2013-02-20 03:35:00
9:55 PM,54.7,23.5,30,30.09,10.0,ESE,16.1,20.7,N/A,,Overcast,120,2013-02-20 03:55:00
10:15 PM,55.0,23.0,29,30.09,10.0,ESE,13.8,20.7,N/A,,Overcast,120,2013-02-20 04:15:00
10:35 PM,55.0,23.4,29,30.09,10.0,ESE,10.4,-,N/A,,Overcast,120,2013-02-20 04:35:00
10:55 PM,54.7,25.5,32,30.10,10.0,SE,10.4,-,N/A,Rain,Light Rain,130,2013-02-20 04:55:00
11:15 PM,52.9,31.1,43,30.10,10.0,SE,6.9,-,N/A,Rain,Light Rain,130,2013-02-20 05:15:00
11:35 PM,51.8,33.3,49,30.11,10.0,SE,9.2,12.7,N/A,Rain,Rain,140,2013-02-20 05:35:00
11:55 PM,48.6,38.1,67,30.09,7.0,ESE,9.2,-,0.03,Rain,Rain,110,2013-02-20 05:55:00